DECAYED
Showing default

ICEYE-X21, 55049 (Decayed)

Orbit data source: Space-Track

ICEYE-X21, 55049 was a payload satellite owned by ICEYE (FI) in LEO that was launched on Tue, 03 Jan 2023 UTC via an FALCON 9 launch vehicle from the Air Force Eastern Test Range (AFETR). Payload-class satellites include a variety of spacecraft equipped with specific instruments for various scientific and technological missions. These include communications satellites like Starlink; space stations such as the ISS; scientific satellites like the Hubble; Earth observation satellites from companies like Planet Labs, Umbra, and HawkEye 360; GPS; miniature CubeSats for education and research; and military/defense satellites.

Not visible in the next 10 days
Identifier
55049, 2023-001AS
Orbit
Decayed
Country
Flag of FIFI / FIN
Related business
Manufacturer
ICEYE
Mission
Decayed Commercial Radar Imaging
Bus & Motor
ICEYE, Unknown motor
Mass
80 kg wet, 80 kg dry
Launch date (UTC)
2023-01-03 (4 years ago)
Launch vehicle
FALCON 9
Launch site
Air Force Eastern Test Range (AFETR)
Object type
Payload
Rocket body
Debris
Shape & HBR
Box + 1 Pan, 2.4 m
Radar Cross Section
1.837 m², Medium (>0.1 m² and < 1m²)

Expand to show TLE details & history
Last TLE update: 2 months ago

TLE from 2 months ago
0 ICEYE-X21
1 55049U 23001AS  26175.21618542  .01585954  23968-5  60214-3 0  9995
2 55049  97.3001 262.6152 0012377 285.9702  74.0225 16.24069885194757
Epoch: 2026-06-24T05:11Z
TLE epoch observation values (Epoch: 2026-06-24T05:11:18.420Z)
Latitude
-0.00005°
Longitude
-87.58813°
Altitude
209.523 km
Speed
7.782 km/s
True Right ascension
17h 30m 27s
True Declination
0° 00' 00"
Sunlit
Object was in full shadow at epoch
Visualization orbit readout
Latitude
Unknown
Longitude
Unknown
Altitude
Unknown
Speed
Unknown
Apparent Right ascension
Unknown
Apparent Declination
Unknown
Sunlit
N/A
Visualization observer readout
Local Sidereal Time
22:44:31
Azimuth
Unknown
Elevation
Unknown
Doppler factor
Unknown
Orbital elements
Apogee altitude
213.497 km
Perigee altitude
197.2 km
Semi-major axis
6,583.486 km
Eccentricity
0.00124
Inclination
97.3001°
RAAN
262.6152°
Arg. of periapsis
285.9702°
True anomaly
74.15891°
Mean anomaly
74.0225°
Eccentric anomaly
74.0907°
Mean motion
4.06312 °/min
Orbital period
88.6 mins
BSTAR
0.00060214
Loading maneuver chart data...
Computing Atmospheric mass density...

Documentation

Showing up to 5 results
|